Weather History for Pittsburgh, PA

Change the Weather History Date:

Tuesday, February 19, 2013

  Actual Average Record
Temperature  
Mean Temperature 34 °F 32 °F  
Max Temperature 46 °F 40 °F 70 °F (1884)
Min Temperature 22 °F 24 °F -8 °F (1936)
Degree Days  
Heating Degree Days 31 33  
Month to date heating degree days 708 661  
Since 1 July heating degree days 3808 3970  
Cooling Degree Days 0 0  
Month to date cooling degree days 0 0  
Year to date cooling degree days 0 0  
Moisture  
Dew Point 26 °F    
Average Humidity 65    
Maximum Humidity 85    
Minimum Humidity 45    
Precipitation  
Precipitation 0.17 in 0.09 in 1.11 in (1924)
Month to date precipitation 0.85 1.62  
Year to date precipitation 3.29 4.32  
Snow  
Snow 0.50 in 0.30 in 5.00 in (1927)
Month to date snowfall 11.2 6.9  
Since 1 July snowfall 37.1 29.2  
Snow Depth 0.00 in    
Sea Level Pressure  
Sea Level Pressure 29.81 in    
Wind  
Wind Speed 14 mph (SW)    
Max Wind Speed 30 mph    
Max Gust Speed 38 mph    
Visibility 8 miles    
Events Rain , Snow    
T = Trace of Precipitation, MM = Missing Value Source: NWS Daily Summary

Daily Weather History Graph

Daily Weather History Graph

Search for Another Location

Airport:

Trip Planner

Search our weather history database for the weather conditions in past years. The results will help you decide how hot, cold, wet, or windy it might be!

Date:

Astronomy

Feb. 19, 2013 Rise Set
Actual Time 7:08 AM EST 6:01 PM EST
Civil Twilight 6:41 AM EST 6:28 PM EST
Nautical Twilight 6:09 AM EST 7:00 PM EST
Astronomical Twilight 5:37 AM EST 7:32 PM EST
Moon 12:30 PM EST (2/19) 2:39 AM EST (2/19)
Length of Visible Light 11h 47m
Length of Day
10h 52m
Waxing Gibbous, 67% of the Moon is Illuminated
Feb 19
Waxing Gibbous
Feb 25
Full
Mar 4
Last Quarter
Mar 11
New
Mar 19
First Quarter

Hourly Weather History & Observations

Time (EST) Temp. Windchill Dew Point Humidity Pressure Visibility Wind Dir Wind Speed Gust Speed Precip Events Conditions
12:51 AM 43.0 °F 37.7 °F 27.0 °F 53% 29.88 in 10.0 mi South 9.2 mph - N/A   Overcast
1:51 AM 45.0 °F 38.9 °F 25.0 °F 46% 29.85 in 10.0 mi South 12.7 mph 21.9 mph N/A   Overcast
2:51 AM 44.1 °F 36.5 °F 30.0 °F 58% 29.86 in 7.0 mi SW 17.3 mph 28.8 mph 0.00 in Rain Light Rain
3:51 AM 41.0 °F 32.5 °F 34.0 °F 76% 29.82 in 8.0 mi SSW 17.3 mph 23.0 mph 0.03 in Rain Light Rain
4:51 AM 39.9 °F 32.1 °F 35.1 °F 83% 29.79 in 10.0 mi South 13.8 mph 18.4 mph 0.03 in Rain Light Rain
5:51 AM 39.0 °F 32.8 °F 35.1 °F 86% 29.76 in 10.0 mi South 9.2 mph - 0.02 in Rain Light Rain
6:09 AM 39.2 °F 32.0 °F 35.6 °F 87% 29.72 in 10.0 mi South 11.5 mph 17.3 mph 0.01 in Rain Light Rain
6:51 AM 39.9 °F 33.4 °F 35.1 °F 83% 29.74 in 9.0 mi South 10.4 mph - 0.02 in Rain Light Rain
7:43 AM 39.2 °F 32.5 °F 35.6 °F 87% 29.68 in 10.0 mi South 10.4 mph - 0.01 in Rain Light Rain
7:51 AM 39.9 °F 32.9 °F 36.0 °F 86% 29.74 in 10.0 mi South 11.5 mph - 0.01 in Rain Light Rain
8:51 AM 41.0 °F 33.9 °F 36.0 °F 82% 29.72 in 8.0 mi SSW 12.7 mph 23.0 mph 0.02 in Rain Light Rain
9:51 AM 41.0 °F 32.2 °F 36.0 °F 82% 29.70 in 10.0 mi SSW 18.4 mph 24.2 mph 0.00 in   Light Drizzle
10:51 AM 43.0 °F 35.4 °F 37.0 °F 80% 29.69 in 7.0 mi SSW 16.1 mph 27.6 mph 0.00 in Rain Light Rain
11:51 AM 37.9 °F 28.2 °F 32.0 °F 79% 29.73 in 7.0 mi WSW 18.4 mph 33.4 mph 0.00 in Rain , Snow Light Rain
1:51 PM 35.1 °F 23.8 °F 26.1 °F 70% 29.74 in 10.0 mi West 20.7 mph 31.1 mph N/A   Overcast
2:51 PM 34.0 °F 23.4 °F 24.1 °F 67% 29.76 in 10.0 mi West 17.3 mph 21.9 mph 0.00 in   Overcast
3:51 PM 32.0 °F 21.6 °F 23.0 °F 69% 29.79 in 8.0 mi West 15.0 mph 25.3 mph 0.00 in Snow Light Snow
4:18 PM 30.2 °F 17.4 °F 24.8 °F 80% 29.76 in 1.0 mi WNW 20.7 mph 24.2 mph 0.00 in Snow Light Snow
4:42 PM 30.2 °F 21.3 °F 24.8 °F 80% 29.77 in 3.0 mi West 10.4 mph 23.0 mph 0.00 in Snow Light Snow
4:51 PM 30.0 °F 20.5 °F 25.0 °F 82% 29.83 in 6.0 mi West 11.5 mph 20.7 mph 0.00 in Snow Light Snow
5:39 PM 30.2 °F 20.8 °F 21.2 °F 69% 29.80 in 3.0 mi West 11.5 mph 21.9 mph 0.00 in Snow Light Snow
5:41 PM 30.2 °F 18.1 °F 21.2 °F 69% 29.80 in 1.0 mi West 18.4 mph 27.6 mph 0.00 in Snow Light Snow
5:51 PM 28.0 °F 15.3 °F 23.0 °F 81% 29.87 in 1.0 mi West 18.4 mph 35.7 mph 0.00 in Snow Light Snow
6:09 PM 26.6 °F 13.8 °F 23.0 °F 86% 29.82 in 5.0 mi West 17.3 mph 27.6 mph 0.00 in Snow Light Snow
7:40 PM 26.6 °F 15.2 °F 19.4 °F 74% 29.86 in 2.5 mi West 13.8 mph 28.8 mph 0.00 in Snow Light Snow
7:51 PM 26.1 °F 15.0 °F 19.9 °F 78% 29.93 in 1.5 mi West 12.7 mph 19.6 mph 0.00 in Snow Light Snow
8:08 PM 26.6 °F 16.8 °F 19.4 °F 74% 29.87 in 5.0 mi WSW 10.4 mph 20.7 mph 0.00 in Snow Light Snow
8:51 PM 25.0 °F 11.7 °F 15.1 °F 66% 29.94 in 10.0 mi West 17.3 mph 28.8 mph 0.00 in   Overcast
9:51 PM 24.1 °F 13.7 °F 12.9 °F 62% 29.94 in 10.0 mi WSW 10.4 mph 20.7 mph 0.00 in Snow Light Snow
10:51 PM 24.1 °F 12.5 °F 15.1 °F 69% 29.95 in 10.0 mi West 12.7 mph 26.5 mph 0.00 in Snow Light Snow
11:24 PM 23.0 °F 9.2 °F 12.2 °F 63% 29.90 in 7.0 mi West 17.3 mph 35.7 mph 0.00 in Snow Light Snow
11:51 PM 23.0 °F 11.7 °F 12.0 °F 63% 29.97 in 10.0 mi West 11.5 mph 20.7 mph 0.00 in Snow Light Snow